IRIDIUM 33 DEB

Satellite information

Favourite Embed

Satellite Type and Status

DEBRISIN ORBIT

Key statistics

Satellite IRIDIUM 33 DEB at a glance.

Uptime

10318

Days in orbit

Revolutions

≈ 14.4

Per day

Orbit

LEO

Low Earth Orbit

Inclination

86.4

Latest

Satellite identification and parameters

Extended collection of information and parameters for IRIDIUM 33 DEB.

Object identification

Identified? True

Debris? True

Object name: IRIDIUM 33 DEB

International designator: 1997-051GZ

Object number (NORAD): 34508

Object ID (CCSDS): 34508

Country: UNITED STATES OF AMERICA (US)

Current information (Y/N): Y

RCS size: SMALL

Orbital parameters

Period: 100.11 minutes

Inclination: 86.3697 deg

SMA: 7141.849 km

Apoapsis: 810.897 km

Periapsis: 716.531 km

RAAN: 102.8455 deg

Eccentricy: 0.00660656

Argument of periapsis: 174.5188 deg

Mean anomaly: 185.6749 deg

Mean motion: 14.38423427 rev/day

Mean motion (dot): 0.00007577 rev/day2

B* drag term: 0.0024154083 1/REarth

Two-line elements (TLE)

Creation date: Dec. 12, 2025, 10:14 a.m.

Reference frame: TEME

Reference center: EARTH

Epoch: Dec. 12, 2025, 6:16 a.m. UTC

TLE line 0: 0 IRIDIUM 33 DEB

TLE line 1: 1 34508U 97051GZ 25346.26163025 .00007577 00000-0 24154-2 0 9991

TLE line 2: 2 34508 86.3697 102.8455 0066066 174.5188 185.6749 14.38423427873022

Live tracking on map

Real-time ground track for satellite IRIDIUM 33 DEB.

In-orbit conjunctions

A list of the most updated potential collisions computed for object IRIDIUM 33 DEB.

Target Orbit TCA Probability of collision Miss distance Type
CZ-6A DEB LEO 2025-04-22 08:46:08 0.0001291204 103.0 (m) DEBRIS
NOAA 16 DEB SSO 2024-11-15 09:16:40 0.0007411585 166.0 (m) DEBRIS
FENGYUN 1C DEB SSO 2024-09-25 08:29:03 0.0003006285 224.0 (m) DEBRIS
PICOSAT 9 LEO 2024-09-15 17:22:15 0.0001203135 103.0 (m) PAYLOAD
COSMOS 2251 DEB LEO 2024-06-16 05:01:46 0.0001075252 300.0 (m) DEBRIS

Associated space launch

Iridium provides global mobile telecommunications services using a constellation of 66 low earth orbit satellites in a 86.4° inclined orbit. Although 77 satellites were originally envisioned for the system and spawned the name based on the 77th element in the periodic table, the system has been scaled back. Motorola's Satellite Communications Group designed and manufactured the Iridium satellites with Lockheed Martin providing the LM-700A spacecraft buses.

IRIDIUM 33 DEB was lifted into orbit during the mission ‘Proton-K/17S40 | Iridium 27 to 33’, on board a Proton-K/17S40 space rocket.

The launch took place on Sept. 14, 1997, 1:36 a.m. from 81/23 (81L).

For more information about the launch, click the button.

Launch to space Proton-K/17S40 | Iridium 27 to 33
Proton-K/17S40 | Iridium 27 to 33

Agency: N/A

Status: Launch Successful

Launch date: Sept. 14, 1997, 1:36 a.m. UTC

Rocket: Proton-K/17S40

Launch pad: 81/23 (81L)

Location: Baikonur Cosmodrome, Republic of Kazakhstan

...

Latest news about this satellite

There are no fresh news available about this satellite. Check back as we update our databases every day.


Newsletter sign-up

Weekly statistics, charts and insights to help you stay on top of the space industry.